Location: Kirtland Hills
(41.6239°N, 81.3071°W)
Time: 20:26:40
(UTC+00:00)

H-2A R/B - Pass Details

Date: 29 October 2020
Orbit: 528 x 653 km, 98.3° (Epoch: 02 December)

Event Time Altitude Azimuth Distance (km) Brightness Sun altitude
Rises 22:46:15 0° 180° (S) 2,918 6.2 -5.0°
Reaches altitude 10° 22:48:29 10° 186° (S) 2,028 5.5 -5.4°
Maximum altitude 22:52:46 47° 260° (W) 859 3.9 -6.2°
Drops below altitude 10° 22:57:09 10° 335° (NNW) 2,069 5.4 -7.0°
Sets 22:59:27 0° 341° (NNW) 2,985 6.2 -7.4°
